Location: Arcizac-Adour
(43.1561°N, 0.0992°E)
Time: 15:19:34
(UTC+00:00)

Daily predictions for brighter satellites

Satellite Brightness Start Highest point End
(mag) Time Altitude Azimuth Time Altitude Azimuth Time Altitude Azimuth
Cosmos 676 Rocket 4.4 19:34:41 10° N 19:39:44 46° ENE 19:44:41 10° SE
Cosmos 1975 Rocket 3.6 19:37:09 10° NNW 19:41:27 63° W 19:45:41 10° S
Cosmos 1605 Rocket 4.2 19:37:23 10° S 19:43:32 83° W 19:49:50 10° N
Okean 1 Rocket 3.9 19:47:59 10° SSE 19:51:51 31° E 19:55:45 10° NNE
Cosmos 1980 Rocket 3.7 19:47:34 10° N 19:52:00 23° NE 19:56:24 10° E
ARIANE 6 FM1 Upper Stage 3.3 19:49:37 10° NW 19:53:27 48° WSW 19:57:16 10° SSE
SL-08 R/B 4.1 19:49:16 10° NNE 19:53:37 32° E 19:57:51 10° SSE
Cosmos 2084 4.4 19:51:23 10° SW 19:55:25 51° NW 19:59:29 10° NNE
SL-24 R/B 4.2 19:51:00 10° NNE 19:55:34 87° WNW 19:59:51 10° SSW
CZ-4 R/B 1.1 19:54:34 10° SSE 19:58:11 88° ENE 20:01:50 10° NNW
Meteor 2-3 Rocket 4.1 19:53:02 10° N 19:58:25 45° ENE 20:03:48 10° SSE
CZ-4B R/B 4.0 19:57:15 10° S 20:01:13 76° WSW 20:05:16 10° NNW
ASTEX 1 3.4 19:59:21 10° S 20:04:17 84° E 20:09:17 10° N
SPOT 5 3.5 20:00:18 10° S 20:04:27 49° W 20:08:40 10° NNW
CZ-4B DEB 4.2 20:00:15 10° SSE 20:05:45 84° ENE 20:11:19 10° NNW
Cosmos 2056 Rocket 3.9 20:02:03 10° SSW 20:07:26 72° WNW 20:12:50 10° NNE
CZ-4B R/B 3.4 20:02:33 10° SSE 20:08:07 64° ENE 20:13:42 10° N
Cosmos 1833 Rocket 2.7 20:02:49 10° SSW 20:08:25 88° WNW 20:14:04 10° NNE
CSL-04 Rocket 4.3 20:03:24 10° S 20:08:50 59° W 20:14:15 10° NNW
Cosmos 1110 Rocket 4.2 20:03:52 10° S 20:08:55 49° ESE 20:14:01 10° NNE
Cosmos 1624 Rocket 4.4 20:05:16 10° SSW 20:10:25 69° WNW 20:15:36 10° NNE
Terra 1.8 20:07:40 10° SSE 20:12:19 72° ENE 20:17:01 10° N
CBERS 1 LM4 rocket 4.4 20:08:01 10° SSE 20:12:51 75° ENE 20:17:54 10° N
Gbstr 26 Del rocket 4.5 20:09:35 10° NW 20:14:28 36° NNE 20:18:34 10° E
Sich 1 Rocket 3.8 20:10:26 10° SSE 20:14:37 48° E 20:18:49 10° NNE
SJ 16-02 3.4 20:18:14 10° NW 20:21:38 24° W 20:25:02 10° SSW
MetOp-B 4.1 20:17:32 10° SSE 20:22:53 87° ENE 20:28:16 10° NNW
PAYLOAD B 4.3 20:19:02 10° S 20:24:31 78° WSW 20:30:05 10° NNW
USA 229 DEB 4.1 20:19:34 10° NW 20:27:13 88° NE 20:34:05 17° SE
USA 229 4.1 20:19:37 10° NW 20:27:17 87° NE 20:34:07 17° SE
Cosmos 1743 3.5 20:25:30 10° NNE 20:27:58 22° ENE 20:28:34 21° E
Cosmos 44 Rocket 3.4 20:24:11 10° SSW 20:29:05 55° ESE 20:34:07 10° NE
ISS -3.6 20:27:10 10° SW 20:30:22 46° SE 20:33:35 10° ENE
Cosmos 1459 Rocket 3.9 20:24:09 10° S 20:30:23 75° E 20:36:34 10° N
SKYMED 3 4.3 20:28:07 10° NNE 20:32:04 84° WNW 20:36:00 10° SSW
Cosmos 2100 Rocket 4.0 20:27:44 10° S 20:33:56 87° E 20:40:15 10° N
Ariane Rocket 4.3 20:32:21 17° ESE 20:34:51 24° ENE 20:38:54 10° NNE
ADEOS 3.6 20:32:33 12° S 20:37:26 79° WSW 20:42:40 10° NNW
ATLAS 2AS CENTAUR R/B 3.9 20:31:11 10° WSW 20:37:49 45° NW 20:44:22 10° NNE
Spot 2 Rocket 3.5 20:36:58 19° SSE 20:40:34 71° ENE 20:45:34 10° N
BREEZE-M DEB (TANK) 3.3 20:39:08 10° WNW 20:42:07 77° NNE 20:47:10 19° ESE
SL-4 R/B 1.8 20:39:07 10° WNW 20:42:57 80° SW 20:44:44 31° SE
MOS 1-B 4.4 20:39:56 19° SSE 20:44:10 71° ENE 20:49:57 10° N
Cosmos 2082 Rocket 2.7 20:40:45 17° SSE 20:44:35 37° ESE 20:49:47 10° NE
Okean 2 Rocket 3.6 20:40:27 10° SSW 20:44:51 60° W 20:49:18 10° N
Cosmos 1607 4.0 20:49:30 10° SSW 20:55:26 55° ESE 21:01:30 10° NE
Cosmos 2233 Rocket 4.1 20:51:19 20° SSE 20:55:32 55° E 21:01:33 10° NNE
Cosmos 2228 3.1 20:55:35 34° SE 20:56:56 48° E 21:00:54 10° NNE
SL-08 R/B 4.5 20:52:56 16° S 20:57:54 67° E 21:04:12 10° NNE
USA 186 1.1 20:58:27 70° SSW 20:58:39 79° WSW 21:01:21 10° NNW
Cosmos 292 Rocket 4.1 20:53:59 10° NNW 20:58:41 61° WSW 21:01:33 23° S
Okean O Rocket 1.6 20:57:28 26° S 20:59:51 78° WSW 21:04:10 10° NNW
DELTA 2 R/B (1) 4.0 20:56:31 10° SW 21:01:36 37° SSE 21:03:11 30° ESE
ERS-1 Rocket 4.5 21:00:05 10° SSW 21:04:33 32° W 21:09:04 10° NNW
Tsikada Rocket 4.1 20:59:43 10° N 21:05:50 60° E 21:08:51 30° SSE
CZ-4C R/B 2.1 21:02:27 10° SW 21:06:28 62° NW 21:11:34 10° NNE
Cosmos 1725 Rocket 4.0 21:00:17 10° S 21:06:35 85° W 21:12:52 10° N
Cosmos 1452 Rocket 3.6 21:02:00 10° SSW 21:07:13 79° WNW 21:12:28 10° NNE
COSMOS 2406 4.2 21:07:29 27° ESE 21:07:47 27° ESE 21:12:31 10° NE
Cosmos 1697 Rocket 3.4 21:02:50 10° NW 21:08:13 47° WSW 21:11:52 19° S
Cosmos 1741 Rocket 4.0 21:05:06 10° NNW 21:10:25 80° WSW 21:13:01 31° S
SL-16 R/B 3.9 21:08:01 10° N 21:12:20 21° NE 21:14:58 16° E
Okean-O 3.0 21:10:27 26° S 21:12:46 58° W 21:17:06 10° NNW
ATLAS 3B R/B 3.1 21:09:02 10° NW 21:16:41 66° WSW 21:20:47 28° SSE
CZ-4B R/B 3.3 21:19:07 43° SE 21:20:33 65° ENE 21:25:17 10° N
USA 245 4.3 21:18:49 32° SSE 21:21:40 89° E 21:27:35 10° NNW
Cosmos 1892 Rocket 3.8 21:17:28 10° NNW 21:21:45 61° W 21:23:28 33° SSW
Cosmos 1455 Rocket 3.8 21:19:52 16° SSW 21:23:15 52° WNW 21:27:34 10° N
Cosmos 1302 Rocket 3.9 21:21:11 19° SSW 21:24:55 90° NE 21:30:07 10° NNE
Cosmos 2333 Rocket 3.8 21:20:45 10° N 21:25:17 24° NE 21:27:39 18° E
Cosmos 2016 Rocket 4.3 21:19:35 11° SSW 21:25:41 67° W 21:31:55 10° N
CZ-4B R/B 2.5 21:33:12 70° W 21:33:12 70° W 21:36:31 10° NNW
Cosmos 2061 Rocket 3.9 21:29:50 27° S 21:33:27 90° E 21:39:45 10° N
Cosmos 1782 3.5 21:32:58 31° SW 21:34:08 42° WNW 21:37:30 10° N
Cosmos 1544 Rocket 3.6 21:35:33 55° E 21:35:36 55° E 21:39:52 10° NNE
SPOT 3 Rocket 3.6 21:34:29 40° S 21:36:20 75° WSW 21:41:30 10° NNW
Cosmos 1980 Rocket 2.4 21:30:48 10° NNW 21:36:28 64° WSW 21:38:33 38° S
NOSS 3-3 (A) 3.4 21:34:27 29° SSW 21:37:06 72° ESE 21:43:00 10° NE
BREEZE-M DEB (TANK) 3.9 21:33:13 10° SW 21:36:17 30° SW 21:36:17 30° SW
Cosmos 1933 4.2 21:44:19 36° NE 21:44:19 36° NE 21:47:00 10° NNE
Fengyun 1C 4.5 21:42:41 51° SSE 21:44:03 85° ENE 21:49:19 10° NNW
Cosmos 2084 Rocket 3.7 21:46:00 10° NNW 21:50:09 55° NE 21:50:19 54° ENE
Terra 4.4 21:48:26 10° WSW 21:50:20 12° W 21:52:15 10° WNW
Helios 1B rocket 4.4 21:51:51 15° NE 21:51:51 15° NE 21:53:16 10° NNE
IRS-1C Rocket 4.2 21:51:54 46° SSW 21:53:22 68° WSW 21:58:38 10° NNW
Cosmos 1758 Rocket 3.4 21:49:11 10° N 21:53:35 82° E 21:53:42 81° ESE
IRS-P2 Rocket 4.5 21:52:32 57° S 21:53:40 87° WSW 21:58:56 10° NNW
CZ-2C R/B 4.0 21:55:17 28° NNW 21:55:17 28° NNW 21:56:47 10° NNW
Cosmos 1464 Rocket 4.3 21:53:24 42° ESE 21:54:10 44° E 21:59:58 10° NNE
Milstar 3 4.3 21:48:15 10° WSW 21:54:30 27° S 21:54:30 27° S
Cosmos 1513 Rocket 4.4 21:56:21 50° SSE 21:57:59 71° E 22:04:09 10° NNE
Gbstr 26 Del rocket 3.0 21:56:30 10° WNW 22:00:52 68° WSW 22:00:52 68° WSW
Cosmos 2360 Rocket 3.6 21:57:51 10° N 22:02:35 26° NE 22:04:14 23° E
NOSS 3-3 (C) 3.5 22:02:52 38° SW 22:05:00 87° NW 22:11:05 10° NE
ISS -1.9 22:04:13 10° W 22:07:15 32° NNW 22:08:14 26° NNE
Cosmos 1072 Rocket 4.5 22:08:18 56° SE 22:09:20 64° E 22:15:34 10° NNE
Geosat 4.0 22:06:02 10° NNE 22:11:03 77° WNW 22:12:24 49° SW
Cosmos 2237 4.2 22:06:35 10° NNW 22:12:19 74° WSW 22:13:13 61° S
Ariane Rocket 3.7 22:12:25 38° SW 22:13:28 43° W 22:18:18 10° NNW
USA 305 3.8 22:10:21 10° NW 22:13:09 38° NNW 22:13:09 38° NNW
Cosmos 1602 Rocket 3.7 22:14:56 10° N 22:18:42 68° N 22:18:42 68° N
Cosmos 2219 Rocket 3.8 22:15:36 10° N 22:20:03 23° NE 22:21:48 20° ENE
Cosmos 1437 Rocket 3.9 22:21:47 37° NNW 22:21:47 37° NNW 22:24:12 10° N
Cosmos 2369 4.2 22:22:08 10° NW 22:27:37 48° WSW 22:28:18 45° SW
Cosmos 2034 Rocket 4.2 22:27:37 54° ESE 22:28:07 55° E 22:34:19 10° NNE
Cosmos 2082 Rocket 3.6 22:23:25 10° WSW 22:28:38 35° NW 22:33:52 10° N
Cosmos 2151 3.8 22:25:30 10° NNW 22:28:57 45° WNW 22:28:57 45° WNW
Cosmos 2322 Rocket 2.8 22:24:55 10° NNW 22:30:19 43° ENE 22:31:03 41° E
Cosmos 1428 Rocket 4.4 22:24:24 10° N 22:30:38 66° E 22:31:20 61° ESE
Meteor 1-5 Rocket 4.1 22:34:00 10° N 22:39:43 88° E 22:40:03 80° SSE
USA 234 3.1 22:34:36 10° NE 22:41:10 76° SE 22:42:48 53° SSW
Cosmos 1763 Rocket 4.3 22:45:39 39° ENE 22:45:39 39° ENE 22:49:29 10° NNE
Okean 1-7 Rocket 4.1 22:43:32 10° N 22:47:08 57° NNW 22:47:08 57° NNW
Cosmos 1503 Rocket 4.4 22:44:09 10° N 22:49:02 51° ENE 22:49:02 51° ENE
Cosmos 1777 Rocket 4.1 22:44:19 10° NNW 22:49:16 66° NE 22:49:16 66° NE
Cosmos 2278 3.6 22:43:48 10° NNW 22:49:33 84° ENE 22:49:38 84° E
Helios 1A 4.0 22:45:54 10° N 22:48:45 41° NNW 22:48:45 41° NNW
COSMOS 2406 4.0 22:49:26 31° WSW 22:51:46 47° WNW 22:57:19 10° NNE
Cosmos 1606 Rocket 4.3 22:52:45 51° NNW 22:52:45 51° NNW 22:56:10 10° N
SL-16 R/B 2.2 22:51:17 10° NNW 22:56:47 67° W 22:56:47 67° W
Cosmos 1634 Rocket 4.3 22:57:50 51° E 22:57:50 51° E 23:03:43 10° NNE
Cosmos 1486 Rocket 4.1 22:56:02 10° NNW 23:00:50 74° NW 23:00:50 74° NW
Nadezhda 4 Rocket 4.0 22:56:17 10° NNW 23:02:19 63° W 23:02:51 60° WSW
Cosmos 2098 Rocket 4.2 23:02:10 42° W 23:02:23 42° WNW 23:06:56 10° N
SeaSat 1 4.4 23:03:53 17° ENE 23:05:21 20° NE 23:08:48 10° N
Meteor 2-2 Rocket 4.4 23:10:21 64° ENE 23:10:21 64° ENE 23:15:32 10° NNE
Cosmos 2333 Rocket 2.4 23:04:23 10° NNW 23:09:39 59° W 23:09:39 59° W
CZ-2C R/B 4.0 23:16:22 27° ENE 23:16:48 28° ENE 23:21:11 10° N
BREEZE-M DEB (TANK) 4.1 23:08:14 10° W 23:16:52 61° N 23:21:46 10° E
Cosmos 1833 4.3 23:17:41 69° NE 23:17:41 69° NE 23:22:43 10° NNE
Cosmos 1627 Rocket 4.4 23:11:08 10° N 23:17:32 89° W 23:17:52 82° S
Cosmos 2195 Rocket 4.5 23:14:16 10° NNW 23:20:28 68° W 23:20:43 67° WSW
Spot 4 4.3 23:23:21 57° NNW 23:23:21 57° NNW 23:27:11 10° NNW
Cosmos 2026 Rocket 4.0 23:20:39 10° NNW 23:27:00 72° W 23:27:17 71° WSW
Aureole 1 Rocket 4.2 23:26:18 10° N 23:31:42 55° ENE 23:32:03 54° E
Cosmos 2297 Rocket 4.4 23:33:58 14° E 23:33:58 14° E 23:35:41 10° ENE
DNEPR-1 R/B 4.4 23:28:14 10° NW 23:33:34 70° W 23:33:34 70° W
Cosmos 2333 4.4 23:34:24 10° NNW 23:39:28 65° WNW 23:39:28 65° WNW
ALOS 2 3.8 23:43:55 39° NW 23:43:55 39° NW 23:46:48 10° NNW
ARIANE 5 R/B 3.9 23:44:33 35° NW 23:44:33 35° NW 23:47:24 10° NNW
Cosmos 2360 Rocket 2.8 23:41:21 10° NW 23:45:58 47° WNW 23:45:58 47° WNW
Cosmos 2058 Rocket 4.4 23:48:52 36° NNW 23:48:52 36° NNW 23:51:49 10° N
Cosmos 468 Rocket 4.3 23:51:08 63° NNE 23:51:08 63° NNE 23:55:32 10° NNE
GP-B 4.5 23:46:28 10° NNE 23:49:14 34° NE 23:49:14 34° NE
